Volver al catálogo

STARLINK-30585

ActivoComunicacionesVLEO
NORAD 58063·PAYLOAD·🇺🇸 United States

Lanzado Oct 13, 2023 desde Cape Canaveral Space Force Station

Loading…

Próximos Pases (próximas 24 horas)

TLE

ActualizadoSource: CelesTrak SupGP

Época: Sep 15, 2026, 03:20 UTC

1 58063C 23158N   26258.13937500 -.00067597  00000+0 -24486-2 0  2581
2 58063  43.0010  37.2066 0001583 260.6106  76.3812 15.27608954    19

Sigue STARLINK-30585 en tiempo real con AllMySat

Download on the App Store